Address 0x3a721d1bc69a84c6aaaefb283efb5fef22f087c4 5

Txn Hash Method
Block
From
To
Value [Txn Fee]
0x0b8c8f2f3decf523d73d84a4011e84f2fdb2f5b0b9c35b4cf1eacf0bea43bc340x60038054190485852021-09-17 15:44:264 days 13 hrs ago0x3a721d1bc69a84c6aaaefb283efb5fef22f087c4OUT Contract Creation0 MATIC0.004655238
0x2384a1360e3fe70c502c856a865fc9900c37bfcc970528548a7d86a1285d7b720x60038054190485572021-09-17 15:43:264 days 13 hrs ago0x3a721d1bc69a84c6aaaefb283efb5fef22f087c4OUT Contract Creation0 MATIC0.004022142
0x389fc5ff4350a8f5a155d5da2940c099fb7bfeab38c72bc3fb2900c58a10bb2aTransfer190482012021-09-17 15:31:144 days 13 hrs ago0x3a721d1bc69a84c6aaaefb283efb5fef22f087c4OUT 0x63231d5060da555026980d67f3d8758805b27e830 MATIC0.005371179
0x033bc82357a14c9331b2621cdaa7a3e0403ac479d665f32d69dc9d2d26325bb4Send190481272021-09-17 15:28:384 days 13 hrs ago0x3a721d1bc69a84c6aaaefb283efb5fef22f087c4OUT 0x63231d5060da555026980d67f3d8758805b27e830 MATIC0.000112066
0xb76073ee7831814d6f18dc072de265ff91a7ba0518a4ae59b25dbfc9e48bbe15Send190480982021-09-17 15:27:404 days 13 hrs ago0x3a721d1bc69a84c6aaaefb283efb5fef22f087c4OUT 0x63231d5060da555026980d67f3d8758805b27e830 MATIC0.000111946
0x96bbb47061d118db598139772768156364323d1f1458ec5cdb3c48959de5a505Unstake All190478542021-09-17 15:19:164 days 13 hrs ago0x3a721d1bc69a84c6aaaefb283efb5fef22f087c4OUT 0x53a2e6198e3923ae7198e9fa962987e1184bc50f0 MATIC0.000023603
0x20882b38768503b0213aad57e1c694f9cf1bf72ac8c0ad83000f7354679b00c6Add Rewards190478072021-09-17 15:17:384 days 14 hrs ago0x3a721d1bc69a84c6aaaefb283efb5fef22f087c4OUT 0x53a2e6198e3923ae7198e9fa962987e1184bc50f0 MATIC0.000091917
0x7a2df6b237e120400ff45b84822d07c118b474ad48c91af5daf1b1cda136e692Approve190478062021-09-17 15:17:324 days 14 hrs ago0x3a721d1bc69a84c6aaaefb283efb5fef22f087c4OUT 0x63231d5060da555026980d67f3d8758805b27e830 MATIC0.00004639
0x5b88509f7dac1fe3fb91ebfb0e1ba3660945a29baa0a07b189f0575cf5e3aa94Send190475502021-09-17 15:04:324 days 14 hrs ago0x3a721d1bc69a84c6aaaefb283efb5fef22f087c4OUT 0xc8625f6efbfd3d2e478d117c08ccd648b2525d620 MATIC0.000227559
0xb0138b5ef0bcef6f29563e4dc7d2995a0e0add62be643b9f0854740f0211beac0x60038054190474792021-09-17 15:02:064 days 14 hrs ago0x3a721d1bc69a84c6aaaefb283efb5fef22f087c4OUT Contract Creation0 MATIC0.003865956
0xc65c749c9685fbb81dae5676417ea2ee7a9903559f1c421c3f5b24e375d84a6aUnstake All190105972021-09-16 17:54:185 days 11 hrs ago0x3a721d1bc69a84c6aaaefb283efb5fef22f087c4OUT 0x92d5761b217010ded277268e77ba77f5a47b2f2d0 MATIC0.000162156
0x5287cc3b12b7b80b4cc83f93a9727e00fbd440d5d00a96d71d427bdfb6057a62Deposit190105882021-09-16 17:54:005 days 11 hrs ago0x3a721d1bc69a84c6aaaefb283efb5fef22f087c4OUT 0x92d5761b217010ded277268e77ba77f5a47b2f2d0 MATIC0.000480348
0x7757c48bc1709877452b0dd7a05e279b0cf1725e81e3c10b4adc7e9a0550b21dTransfer190105782021-09-16 17:53:405 days 11 hrs ago0x3a721d1bc69a84c6aaaefb283efb5fef22f087c4OUT 0x63231d5060da555026980d67f3d8758805b27e830 MATIC0.006900944
0x3fdd9a65455e6bbb4907c8a416ff743345bfd16b73c01d500e22b5ea5dae0ea3Approve190105742021-09-16 17:53:325 days 11 hrs ago0x3a721d1bc69a84c6aaaefb283efb5fef22f087c4OUT 0x326c977e6efc84e512bb9c30f76e30c160ed06fb0 MATIC0.000138573
0x4e502fb105709b693ec4fb43dbae32c23f06b777008ed67b51920cd47652c0f40x60038054190105402021-09-16 17:52:205 days 11 hrs ago0x3a721d1bc69a84c6aaaefb283efb5fef22f087c4OUT Contract Creation0 MATIC0.004022142
0x6eb118ecbc226968f8785736d20ed8a911e9b192700a27b1e0a0d24e97ab9249Unstake190104492021-09-16 17:49:145 days 11 hrs ago0x3a721d1bc69a84c6aaaefb283efb5fef22f087c4OUT 0xc69ea31c28c8521992c2534d13d638361514e0f60 MATIC0.056113557
0x16a1c90fc012b192d26845d2c8b241d8ca31821b3801281acb78c273a2570d96Unstake All190104302021-09-16 17:48:325 days 11 hrs ago0x3a721d1bc69a84c6aaaefb283efb5fef22f087c4OUT 0xc69ea31c28c8521992c2534d13d638361514e0f60 MATIC0.037409044
0x7fddc9c80c77b5e5120a4d08a0fa4b939e3cf6a3f115a57f270d7561a8da8cfbDeposit190104162021-09-16 17:48:045 days 11 hrs ago0x3a721d1bc69a84c6aaaefb283efb5fef22f087c4OUT 0xc69ea31c28c8521992c2534d13d638361514e0f60 MATIC0.000268584
0x63e6bc4abda8b44e430f312fa9428ac0570cf63e9571aa54d443b9915dfdd17aTransfer190104032021-09-16 17:47:385 days 11 hrs ago0x3a721d1bc69a84c6aaaefb283efb5fef22f087c4OUT 0x63231d5060da555026980d67f3d8758805b27e830 MATIC0.006621176
0x2887fdef92a3b432fa8f701d77b2dc97f4921ebc834f901dd8995e4d61328984Approve190103972021-09-16 17:47:265 days 11 hrs ago0x3a721d1bc69a84c6aaaefb283efb5fef22f087c4OUT 0x326c977e6efc84e512bb9c30f76e30c160ed06fb0 MATIC0.000092382
0xe1bfacbcbf1e14ce70b570b2f7172b1a183530bb43130c01a5e8a8729702f6210x60038054190103562021-09-16 17:46:005 days 11 hrs ago0x3a721d1bc69a84c6aaaefb283efb5fef22f087c4OUT Contract Creation0 MATIC0.002607548
0x66fe97eac757e452499eb8226208b040b542c1c110f26b597cbce187f23db45dUnstake190102952021-09-16 17:43:545 days 11 hrs ago0x3a721d1bc69a84c6aaaefb283efb5fef22f087c4OUT 0xa49bc73343f59bb8f7fff68c4c60cc70a24770c50 MATIC0.00011237
0x6177b45ed42ef121cf79b73ea7e1637e55dec14527d653f3d6fbd59b1b729640Deposit190102552021-09-16 17:42:345 days 11 hrs ago0x3a721d1bc69a84c6aaaefb283efb5fef22f087c4OUT 0xa49bc73343f59bb8f7fff68c4c60cc70a24770c50 MATIC0.000402876
0xcef7ca56e5747393cc9df4c6c8d7a0e1daf2f641e6da7c4ca11d953bc24c3111Approve190102492021-09-16 17:42:225 days 11 hrs ago0x3a721d1bc69a84c6aaaefb283efb5fef22f087c4OUT 0x326c977e6efc84e512bb9c30f76e30c160ed06fb0 MATIC0.000138573
0x65ad9e5a6a2b6a99bd18df2a174d3a02c76984737750b4664675cf9ff34728f9Transfer190102402021-09-16 17:42:045 days 11 hrs ago0x3a721d1bc69a84c6aaaefb283efb5fef22f087c4OUT 0x63231d5060da555026980d67f3d8758805b27e830 MATIC0.006621176
[ Download CSV Export 
Latest 1 internal transaction
Parent Txn Hash Block From To Value
0xce12c6dcbe1ade21aa1ef3d74cda46efe73eeea27af9dbc4a9f3b59a39569727140855142021-05-21 3:49:02124 days 1 hr ago 0x05352c7d52d792519974f1385c0c3b61a179a4c10x3a721d1bc69a84c6aaaefb283efb5fef22f087c40.01 MATIC
[ Download CSV Export 
Loading

Contract Name:
0 MATIC

Compiler Version
0

Optimization Enabled:
0 MATIC

Other Settings:
-NA-
Block Transaction Gas Used Reward
Age Block Fee Address BC Fee Address Voting Power Jailed Incoming
Block Uncle Number Difficulty Gas Used Reward
Loading